Gallup, NM

11:26 PM MDT on April 26, 2018 (GMT -0600)
Gallup Municipal

Weather History for KGUP - April, 2014

Change the Weather History Date:

Friday, April 11, 2014

  Actual Average Record
Temperature  
Mean Temperature 53 °F -  
Max Temperature 73 °F 59 °F 79 °F (2018)
Min Temperature 34 °F 24 °F 12 °F (1999)
Degree Days  
Heating Degree Days 12    
Growing Degree Days 3 (Base 50)    
Moisture  
Dew Point 4 °F    
Average Humidity 16    
Maximum Humidity 30    
Minimum Humidity 6    
Precipitation  
Precipitation 0.00 in - - ()
Sea Level Pressure  
Sea Level Pressure 29.87 in    
Wind  
Wind Speed 7 mph (WSW)    
Max Wind Speed 18 mph    
Max Gust Speed 29 mph    
Visibility 10 miles    
Events      
Averages and records for this station are not official NWS values.
T = Trace of Precipitation, MM = Missing Value Source: NWS Daily Summary

Daily Weather History Graph

Daily Weather History Graph

Search for Another Location

Airport or City:

Astronomy

Apr. 11, 2014 Rise Set
Actual Time 6:47 AM MDT 7:45 PM MDT
Civil Twilight 6:21 AM MDT 8:11 PM MDT
Nautical Twilight 5:50 AM MDT 8:42 PM MDT
Astronomical Twilight 5:19 AM MDT 9:13 PM MDT
Moon 4:35 PM MDT (4/11) 4:37 AM MDT (4/11)
Length of Visible Light 13h 49m
Length of Day
12h 57m
Waxing Gibbous, 87% of the Moon is Illuminated
Apr 11
Waxing Gibbous
Apr 15
Full
Apr 22
Last Quarter
Apr 29
New
May 6
First Quarter

Hourly Weather History & Observations

Time (MDT) Temp. Windchill Dew Point Humidity Pressure Visibility Wind Dir Wind Speed Gust Speed Precip Events Conditions
12:53 AM 37.9 °F 33.5 °F 1.9 °F 22% 29.91 in 10.0 mi NE 5.8 mph - N/A   Clear
1:53 AM 37.9 °F 32.7 °F 3.0 °F 23% 29.89 in 10.0 mi ENE 6.9 mph - N/A   Clear
2:53 AM 35.1 °F 31.0 °F 3.0 °F 26% 29.91 in 10.0 mi ENE 4.6 mph - N/A   Clear
3:53 AM 34.0 °F 28.8 °F 5.0 °F 30% 29.90 in 10.0 mi ENE 5.8 mph - N/A   Clear
4:53 AM 36.0 °F 30.3 °F 3.0 °F 25% 29.90 in 10.0 mi NE 6.9 mph - N/A   Clear
5:53 AM 35.1 °F - 3.0 °F 26% 29.91 in 10.0 mi Calm Calm - N/A   Clear
6:53 AM 37.0 °F 34.5 °F 6.1 °F 28% 29.92 in 10.0 mi NNE 3.5 mph - N/A   Clear
7:53 AM 39.0 °F 35.7 °F 7.0 °F 27% 29.97 in 10.0 mi NE 4.6 mph - N/A   Clear
8:53 AM 50.0 °F - 9.0 °F 19% 29.98 in 10.0 mi ENE 3.5 mph - N/A   Clear
9:53 AM 59.0 °F - 10.9 °F 15% 29.93 in 10.0 mi Variable 4.6 mph - N/A   Clear
10:53 AM 64.9 °F - 6.1 °F 10% 29.92 in 10.0 mi WSW 8.1 mph - N/A   Clear
11:53 AM 68.0 °F - -0.0 °F 7% 29.91 in 10.0 mi Variable 6.9 mph - N/A   Clear
12:53 PM 70.0 °F - -0.0 °F 6% 29.89 in 10.0 mi WSW 17.3 mph 27.6 mph N/A   Clear
1:53 PM 70.0 °F - 1.9 °F 7% 29.87 in 10.0 mi SW 12.7 mph 23.0 mph N/A   Clear
2:53 PM 71.1 °F - 1.9 °F 7% 29.86 in 10.0 mi SSW 17.3 mph 28.8 mph N/A   Clear
3:53 PM 70.0 °F - -0.0 °F 6% 29.86 in 10.0 mi SSW 17.3 mph 27.6 mph N/A   Clear
4:53 PM 72.0 °F - 5.0 °F 7% 29.80 in 10.0 mi WSW 13.8 mph 23.0 mph N/A   Clear
5:53 PM 70.0 °F - 1.9 °F 7% 29.80 in 10.0 mi WSW 16.1 mph - N/A   Clear
6:53 PM 68.0 °F - 3.0 °F 8% 29.79 in 10.0 mi West 18.4 mph 27.6 mph N/A   Clear
7:53 PM 64.0 °F - 1.9 °F 8% 29.81 in 10.0 mi WSW 11.5 mph 21.9 mph N/A   Clear
8:53 PM 51.1 °F - 3.0 °F 14% 29.83 in 10.0 mi South 6.9 mph - N/A   Clear
9:53 PM 50.0 °F - 3.0 °F 15% 29.79 in 10.0 mi Calm Calm - N/A   Clear
10:53 PM 44.1 °F - 3.9 °F 19% 29.79 in 10.0 mi Calm Calm - N/A   Clear
11:53 PM 46.9 °F - 7.0 °F 20% 29.75 in 10.0 mi Calm Calm - N/A   Clear